| time (UTC) | temp C | wind direction | speed KPH | gust KPH | rain 1hr cm | rain 24hr cm | rain mn cm | humidity % | barometer mb |
| 20260507073626 | 11 | 32 | 3.2 | 11.3 | 0.00 | 0.00 | 0.00 | 74 | 1016.0 |
| 20260507072624 | 10 | 0 | 4.8 | 11.3 | 0.00 | 0.00 | 0.00 | 76 | 1016.0 |
| 20260507072124 | 10 | 358 | 4.8 | 11.3 | 0.00 | 0.00 | 0.00 | 76 | 1016.0 |
| 20260507071624 | 10 | 25 | 4.8 | 9.7 | 0.00 | 0.00 | 0.00 | 77 | 1016.0 |
| 20260507070624 | 10 | 0 | 4.8 | 11.3 | 0.00 | 0.00 | 0.00 | 79 | 1016.0 |
| 20260507070124 | 10 | 8 | 4.8 | 16.1 | 0.00 | 0.00 | 0.00 | 80 | 1015.9 |
| 20260507065623 | 9 | 30 | 4.8 | 16.1 | 0.00 | 0.00 | 0.00 | 80 | 1015.9 |
| 20260507064623 | 8 | 39 | 6.4 | 16.1 | 0.00 | 0.00 | 0.00 | 84 | 1015.8 |
| 20260507064125 | 8 | 0 | 6.4 | 16.1 | 0.00 | 0.00 | 0.00 | 85 | 1015.8 |
| 20260507063122 | 8 | 21 | 6.4 | 8.0 | 0.00 | 0.00 | 0.00 | 89 | 1015.8 |
| 20260507062623 | 7 | 20 | 4.8 | 8.0 | 0.00 | 0.00 | 0.00 | 91 | 1015.8 |
| 20260507062123 | 7 | 348 | 3.2 | 6.4 | 0.00 | 0.00 | 0.00 | 92 | 1015.8 |
| 20260507061620 | 7 | 25 | 1.6 | 8.0 | 0.00 | 0.00 | 0.00 | 93 | 1015.8 |
| 20260507061118 | 7 | 25 | 3.2 | 8.0 | 0.00 | 0.00 | 0.00 | 93 | 1015.8 |
| 20260507060620 | 6 | 23 | 3.2 | 8.0 | 0.00 | 0.00 | 0.00 | 93 | 1015.8 |
| 20260507060118 | 6 | 11 | 1.6 | 4.8 | 0.00 | 0.00 | 0.00 | 93 | 1015.7 |
| 20260507054617 | 6 | 7 | 1.6 | 3.2 | 0.00 | 0.00 | 0.00 | 92 | 1015.7 |
| 20260507054118 | 6 | 7 | 0.0 | 0.0 | 0.00 | 0.00 | 0.00 | 92 | 1015.7 |
| 20260507053116 | 6 | 7 | 0.0 | 0.0 | 0.00 | 0.00 | 0.00 | 92 | 1015.5 |
| 20260507052616 | 6 | 7 | 0.0 | 0.0 | 0.00 | 0.00 | 0.00 | 92 | 1015.4 |
| 20260507052116 | 6 | 7 | 0.0 | 0.0 | 0.00 | 0.00 | 0.00 | 92 | 1015.4 |
| 20260507051617 | 6 | 7 | 0.0 | 0.0 | 0.00 | 0.00 | 0.00 | 92 | 1015.4 |
| 20260507051117 | 6 | 7 | 0.0 | 0.0 | 0.00 | 0.00 | 0.00 | 92 | 1015.3 |
| 20260507045613 | 5 | 7 | 0.0 | 0.0 | 0.00 | 0.00 | 0.00 | 91 | 1015.1 |
| 20260507045114 | 5 | 7 | 0.0 | 0.0 | 0.00 | 0.00 | 0.00 | 91 | 1015.1 |
| 20260507044612 | 5 | 7 | 0.0 | 0.0 | 0.00 | 0.00 | 0.00 | 91 | 1015.1 |
| 20260507044112 | 5 | 7 | 0.0 | 0.0 | 0.00 | 0.00 | 0.00 | 91 | 1015.1 |
| 20260507043612 | 5 | 7 | 0.0 | 0.0 | 0.00 | 0.00 | 0.00 | 91 | 1015.1 |
| 20260507042611 | 5 | 7 | 0.0 | 0.0 | 0.00 | 0.00 | 0.00 | 90 | 1015.0 |
| 20260507042111 | 5 | 7 | 0.0 | 0.0 | 0.00 | 0.00 | 0.00 | 90 | 1014.9 |
| 20260507041104 | 6 | 7 | 0.0 | 0.0 | 0.00 | 0.00 | 0.00 | 89 | 1014.9 |
| 20260507040603 | 6 | 7 | 0.0 | 0.0 | 0.00 | 0.00 | 0.00 | 89 | 1014.8 |
| 20260507040104 | 6 | 7 | 0.0 | 0.0 | 0.00 | 0.00 | 0.00 | 89 | 1014.8 |
| 20260507035604 | 6 | 7 | 0.0 | 0.0 | 0.00 | 0.00 | 0.00 | 89 | 1014.8 |
| 20260507035103 | 6 | 7 | 0.0 | 0.0 | 0.00 | 0.00 | 0.00 | 89 | 1014.7 |
| 20260507034104 | 6 | 7 | 0.0 | 0.0 | 0.00 | 0.00 | 0.00 | 88 | 1014.6 |
| 20260507033603 | 6 | 7 | 0.0 | 0.0 | 0.00 | 0.00 | 0.00 | 89 | 1014.5 |
| 20260507033103 | 6 | 7 | 0.0 | 0.0 | 0.00 | 0.00 | 0.00 | 88 | 1014.6 |
| 20260507032604 | 6 | 7 | 0.0 | 0.0 | 0.00 | 0.00 | 0.00 | 88 | 1014.5 |
| 20260507032105 | 6 | 7 | 0.0 | 1.6 | 0.00 | 0.00 | 0.00 | 88 | 1014.5 |
| 20260507031603 | 6 | 7 | 0.0 | 1.6 | 0.00 | 0.00 | 0.00 | 88 | 1014.5 |
| 20260507031103 | 7 | 7 | 0.0 | 1.6 | 0.00 | 0.00 | 0.00 | 88 | 1014.4 |
| 20260507030604 | 7 | 7 | 0.0 | 1.6 | 0.00 | 0.00 | 0.00 | 88 | 1014.4 |
| 20260507025605 | 7 | 7 | 0.0 | 3.2 | 0.00 | 0.00 | 0.00 | 87 | 1014.4 |
| 20260507025103 | 7 | 7 | 0.0 | 3.2 | 0.00 | 0.00 | 0.00 | 87 | 1014.4 |
| 20260507024603 | 7 | 7 | 0.0 | 1.6 | 0.00 | 0.00 | 0.00 | 87 | 1014.4 |
| 20260507024104 | 7 | 7 | 0.0 | 1.6 | 0.00 | 0.00 | 0.00 | 86 | 1014.4 |
| 20260507023605 | 7 | 7 | 0.0 | 1.6 | 0.00 | 0.00 | 0.00 | 86 | 1014.4 |
| 20260507023103 | 7 | 7 | 0.0 | 3.2 | 0.00 | 0.00 | 0.00 | 86 | 1014.4 |
| 20260507022605 | 7 | 7 | 1.6 | 3.2 | 0.00 | 0.00 | 0.00 | 86 | 1014.3 |
| 20260507021603 | 8 | 7 | 0.0 | 3.2 | 0.00 | 0.00 | 0.00 | 85 | 1014.2 |
| 20260507015603 | 8 | 7 | 0.0 | 3.2 | 0.00 | 0.00 | 0.00 | 85 | 1014.2 |
| 20260507015106 | 8 | 7 | 0.0 | 3.2 | 0.00 | 0.00 | 0.00 | 85 | 1014.1 |
| 20260507014103 | 8 | 7 | 1.6 | 4.8 | 0.00 | 0.00 | 0.00 | 85 | 1014.0 |
| 20260507013605 | 8 | 20 | 1.6 | 4.8 | 0.00 | 0.00 | 0.00 | 85 | 1013.9 |
| 20260507012604 | 8 | 28 | 3.2 | 8.0 | 0.00 | 0.00 | 0.00 | 85 | 1014.0 |
| 20260507012104 | 8 | 358 | 3.2 | 6.4 | 0.00 | 0.00 | 0.00 | 84 | 1014.0 |
| 20260507010605 | 8 | 344 | 1.6 | 9.7 | 0.00 | 0.00 | 0.00 | 84 | 1013.9 |
| 20260507005604 | 8 | 0 | 3.2 | 8.0 | 0.00 | 0.00 | 0.00 | 83 | 1013.8 |
| 20260507005105 | 8 | 312 | 3.2 | 8.0 | 0.00 | 0.00 | 0.00 | 83 | 1013.8 |
| 20260507004603 | 8 | 337 | 4.8 | 8.0 | 0.00 | 0.00 | 0.00 | 83 | 1013.8 |
| 20260507004103 | 8 | 0 | 3.2 | 8.0 | 0.00 | 0.00 | 0.00 | 83 | 1013.8 |
| 20260507003105 | 8 | 0 | 3.2 | 8.0 | 0.00 | 0.00 | 0.00 | 82 | 1013.7 |
| 20260507002604 | 8 | 21 | 3.2 | 8.0 | 0.00 | 0.00 | 0.00 | 82 | 1013.7 |
| 20260507002104 | 9 | 0 | 3.2 | 6.4 | 0.00 | 0.00 | 0.00 | 82 | 1013.7 |
| 20260507001605 | 9 | 355 | 3.2 | 11.3 | 0.00 | 0.00 | 0.00 | 82 | 1013.7 |
| 20260507001103 | 9 | 8 | 1.6 | 11.3 | 0.00 | 0.00 | 0.00 | 82 | 1013.6 |
| 20260506235606 | 9 | 0 | 3.2 | 8.0 | 0.00 | 0.00 | 0.00 | 81 | 1013.6 |
| 20260506235104 | 9 | 353 | 1.6 | 6.4 | 0.00 | 0.00 | 0.00 | 81 | 1013.6 |
| 20260506234104 | 10 | 338 | 4.8 | 16.1 | 0.00 | 0.00 | 0.00 | 80 | 1013.5 |
| 20260506233104 | 10 | 4 | 3.2 | 9.7 | 0.00 | 0.00 | 0.00 | 79 | 1013.5 |
| 20260506232604 | 10 | 18 | 4.8 | 14.5 | 0.00 | 0.00 | 0.00 | 79 | 1013.4 |
| 20260506231103 | 10 | 39 | 4.8 | 9.7 | 0.00 | 0.00 | 0.00 | 78 | 1013.5 |
| 20260506230603 | 10 | 30 | 4.8 | 14.5 | 0.00 | 0.00 | 0.00 | 78 | 1013.5 |
| 20260506225605 | 10 | 11 | 4.8 | 11.3 | 0.00 | 0.00 | 0.00 | 77 | 1013.3 |
| 20260506225103 | 10 | 45 | 4.8 | 9.7 | 0.00 | 0.00 | 0.00 | 77 | 1013.3 |
| 20260506224603 | 10 | 25 | 1.6 | 1.6 | 0.00 | 0.00 | 0.00 | 77 | 1013.3 |
| 20260506224104 | 10 | 30 | 3.2 | 8.0 | 0.00 | 0.00 | 0.00 | 77 | 1013.3 |
| 20260506223605 | 10 | 30 | 3.2 | 11.3 | 0.00 | 0.00 | 0.00 | 77 | 1013.3 |
| 20260506222606 | 10 | 21 | 3.2 | 8.0 | 0.00 | 0.00 | 0.00 | 77 | 1013.2 |
| 20260506222103 | 10 | 0 | 4.8 | 8.0 | 0.00 | 0.00 | 0.00 | 77 | 1013.2 |
| 20260506221604 | 10 | 11 | 3.2 | 6.4 | 0.00 | 0.00 | 0.00 | 77 | 1013.2 |
| 20260506221103 | 10 | 34 | 3.2 | 8.0 | 0.00 | 0.00 | 0.00 | 77 | 1013.2 |
| 20260506220603 | 10 | 31 | 3.2 | 8.0 | 0.00 | 0.00 | 0.00 | 77 | 1013.2 |
| 20260506220123 | 10 | 21 | 1.6 | 4.8 | 0.00 | 0.00 | 0.00 | 77 | 1013.2 |
| 20260506215602 | 10 | 21 | 3.2 | 6.4 | 0.00 | 0.00 | 0.00 | 77 | 1013.1 |
| 20260506215102 | 10 | 21 | 1.6 | 8.0 | 0.00 | 0.00 | 0.00 | 77 | 1013.1 |
| 20260506214559 | 11 | 13 | 3.2 | 8.0 | 0.00 | 0.00 | 0.00 | 77 | 1013.1 |
| 20260506213558 | 11 | 25 | 3.2 | 11.3 | 0.00 | 0.00 | 0.00 | 76 | 1012.9 |
| 20260506213057 | 11 | 14 | 4.8 | 9.7 | 0.00 | 0.00 | 0.00 | 77 | 1012.9 |
| 20260506212556 | 11 | 27 | 3.2 | 9.7 | 0.00 | 0.00 | 0.00 | 77 | 1012.9 |
| 20260506212057 | 11 | 3 | 4.8 | 9.7 | 0.00 | 0.00 | 0.00 | 77 | 1012.8 |
| 20260506211557 | 11 | 35 | 4.8 | 9.7 | 0.00 | 0.00 | 0.00 | 77 | 1012.8 |
| 20260506211055 | 11 | 35 | 6.4 | 9.7 | 0.00 | 0.00 | 0.00 | 77 | 1012.8 |
| 20260506210053 | 11 | 23 | 3.2 | 8.0 | 0.00 | 0.00 | 0.00 | 78 | 1012.7 |
| 20260506205553 | 11 | 32 | 3.2 | 8.0 | 0.00 | 0.00 | 0.00 | 78 | 1012.7 |
| 20260506205052 | 11 | 330 | 1.6 | 4.8 | 0.00 | 0.00 | 0.00 | 78 | 1012.6 |
| 20260506204551 | 11 | 312 | 3.2 | 4.8 | 0.00 | 0.00 | 0.00 | 78 | 1012.5 |
| 20260506204051 | 11 | 298 | 1.6 | 4.8 | 0.00 | 0.00 | 0.00 | 78 | 1012.5 |
| 20260506203553 | 11 | 286 | 0.0 | 6.4 | 0.00 | 0.00 | 0.00 | 78 | 1012.5 |
| 20260506203052 | 11 | 272 | 1.6 | 6.4 | 0.00 | 0.00 | 0.00 | 78 | 1012.4 |
| 20260506202045 | 11 | 52 | 0.0 | 1.6 | 0.00 | 0.00 | 0.00 | 77 | 1012.4 |
| 20260506201043 | 11 | 52 | 0.0 | 1.6 | 0.00 | 0.00 | 0.00 | 76 | 1012.4 |
| 20260506200541 | 11 | 52 | 0.0 | 1.6 | 0.00 | 0.00 | 0.00 | 76 | 1012.3 |
| 20260506200039 | 11 | 52 | 0.0 | 0.0 | 0.00 | 0.00 | 0.00 | 75 | 1012.3 |
| 20260506195038 | 11 | 52 | 0.0 | 0.0 | 0.00 | 0.00 | 0.00 | 74 | 1012.2 |
| 20260506194539 | 11 | 52 | 0.0 | 0.0 | 0.00 | 0.00 | 0.00 | 74 | 1012.2 |
| 20260506194037 | 11 | 52 | 0.0 | 0.0 | 0.00 | 0.00 | 0.00 | 73 | 1012.1 |
| 20260506192536 | 12 | 52 | 0.0 | 0.0 | 0.00 | 0.00 | 0.00 | 73 | 1011.9 |
| 20260506191533 | 12 | 52 | 0.0 | 0.0 | 0.00 | 0.00 | 0.00 | 72 | 1011.8 |
| 20260506191034 | 12 | 52 | 0.0 | 1.6 | 0.00 | 0.00 | 0.00 | 72 | 1011.7 |
| 20260506190033 | 12 | 52 | 0.0 | 0.0 | 0.00 | 0.00 | 0.00 | 71 | 1011.6 |
| 20260506185533 | 12 | 52 | 0.0 | 0.0 | 0.00 | 0.00 | 0.00 | 71 | 1011.5 |
| 20260506185032 | 12 | 52 | 0.0 | 1.6 | 0.00 | 0.00 | 0.00 | 71 | 1011.4 |
| 20260506184533 | 12 | 52 | 0.0 | 1.6 | 0.00 | 0.00 | 0.00 | 70 | 1011.3 |
| 20260506184032 | 12 | 52 | 0.0 | 0.0 | 0.00 | 0.00 | 0.00 | 70 | 1011.4 |
| 20260506183033 | 12 | 52 | 0.0 | 1.6 | 0.00 | 0.00 | 0.00 | 69 | 1011.3 |
| 20260506182533 | 12 | 52 | 0.0 | 1.6 | 0.00 | 0.00 | 0.00 | 69 | 1011.3 |
| 20260506182032 | 12 | 52 | 0.0 | 3.2 | 0.00 | 0.00 | 0.00 | 68 | 1011.2 |
| 20260506181032 | 12 | 52 | 1.6 | 3.2 | 0.00 | 0.00 | 0.00 | 68 | 1011.1 |
| 20260506180534 | 12 | 52 | 1.6 | 4.8 | 0.00 | 0.00 | 0.00 | 68 | 1011.1 |
| 20260506180034 | 12 | 52 | 1.6 | 4.8 | 0.00 | 0.00 | 0.00 | 67 | 1011.1 |
| 20260506175533 | 12 | 18 | 3.2 | 8.0 | 0.00 | 0.00 | 0.00 | 67 | 1011.0 |
| 20260506175033 | 12 | 18 | 1.6 | 8.0 | 0.00 | 0.00 | 0.00 | 66 | 1011.0 |
| 20260506174532 | 12 | 350 | 3.2 | 6.4 | 0.00 | 0.00 | 0.00 | 66 | 1010.9 |
| 20260506173532 | 13 | 63 | 1.6 | 4.8 | 0.00 | 0.00 | 0.00 | 66 | 1010.7 |
| 20260506173033 | 13 | 65 | 1.6 | 3.2 | 0.00 | 0.00 | 0.00 | 66 | 1010.6 |
| 20260506172028 | 13 | 65 | 1.6 | 3.2 | 0.00 | 0.00 | 0.00 | 66 | 1010.6 |
| 20260506171527 | 13 | 65 | 1.6 | 4.8 | 0.00 | 0.00 | 0.00 | 66 | 1010.5 |
| 20260506171023 | 13 | 65 | 1.6 | 4.8 | 0.00 | 0.00 | 0.00 | 66 | 1010.5 |
| 20260506170520 | 13 | 65 | 1.6 | 3.2 | 0.00 | 0.00 | 0.00 | 65 | 1010.4 |
| 20260506170024 | 13 | 65 | 1.6 | 6.4 | 0.00 | 0.00 | 0.00 | 65 | 1010.4 |
| 20260506165515 | 13 | 54 | 1.6 | 6.4 | 0.00 | 0.00 | 0.00 | 65 | 1010.4 |
| 20260506165013 | 13 | 110 | 3.2 | 6.4 | 0.00 | 0.00 | 0.00 | 64 | 1010.4 |
| 20260506164511 | 13 | 27 | 1.6 | 6.4 | 0.00 | 0.00 | 0.00 | 64 | 1010.5 |
| 20260506164010 | 13 | 27 | 3.2 | 6.4 | 0.00 | 0.00 | 0.00 | 63 | 1010.5 |
| 20260506163508 | 13 | 78 | 3.2 | 4.8 | 0.00 | 0.00 | 0.00 | 64 | 1010.5 |
| 20260506163010 | 13 | 80 | 3.2 | 4.8 | 0.00 | 0.00 | 0.00 | 64 | 1010.5 |
| 20260506162506 | 13 | 6 | 3.2 | 8.0 | 0.00 | 0.00 | 0.00 | 63 | 1010.5 |
| 20260506162006 | 13 | 0 | 3.2 | 8.0 | 0.00 | 0.00 | 0.00 | 62 | 1010.4 |
| 20260506161007 | 13 | 14 | 4.8 | 6.4 | 0.00 | 0.00 | 0.00 | 63 | 1010.4 |
| 20260506160010 | 13 | 94 | 4.8 | 9.7 | 0.00 | 0.00 | 0.00 | 63 | 1010.4 |
| 20260506155506 | 13 | 128 | 4.8 | 11.3 | 0.00 | 0.00 | 0.00 | 64 | 1010.4 |
| 20260506155006 | 13 | 138 | 4.8 | 11.3 | 0.00 | 0.00 | 0.00 | 64 | 1010.4 |
| 20260506154507 | 13 | 10 | 8.0 | 11.3 | 0.00 | 0.00 | 0.00 | 63 | 1010.4 |
| 20260506154007 | 13 | 82 | 3.2 | 11.3 | 0.00 | 0.00 | 0.00 | 64 | 1010.4 |
| 20260506153507 | 13 | 117 | 4.8 | 14.5 | 0.00 | 0.00 | 0.00 | 64 | 1010.4 |
| 20260506153005 | 13 | 114 | 4.8 | 14.5 | 0.00 | 0.00 | 0.00 | 64 | 1010.5 |
| 20260506152507 | 13 | 0 | 4.8 | 11.3 | 0.00 | 0.00 | 0.00 | 64 | 1010.4 |
| 20260506152004 | 13 | 113 | 6.4 | 16.1 | 0.00 | 0.00 | 0.00 | 64 | 1010.4 |
| 20260506151505 | 13 | 127 | 6.4 | 16.1 | 0.00 | 0.00 | 0.00 | 64 | 1010.5 |
| 20260506151007 | 13 | 23 | 6.4 | 16.1 | 0.00 | 0.00 | 0.00 | 63 | 1010.4 |
| 20260506150506 | 13 | 114 | 6.4 | 16.1 | 0.00 | 0.00 | 0.00 | 63 | 1010.4 |
| 20260506150008 | 13 | 31 | 4.8 | 14.5 | 0.00 | 0.00 | 0.00 | 62 | 1010.4 |
| 20260506145506 | 13 | 3 | 8.0 | 19.3 | 0.00 | 0.00 | 0.00 | 61 | 1010.4 |
| 20260506144506 | 13 | 17 | 6.4 | 11.3 | 0.00 | 0.00 | 0.00 | 61 | 1010.3 |
| 20260506144007 | 13 | 0 | 4.8 | 16.1 | 0.00 | 0.00 | 0.00 | 61 | 1010.3 |
| 20260506143505 | 13 | 31 | 8.0 | 20.9 | 0.00 | 0.00 | 0.00 | 60 | 1010.3 |
| 20260506143006 | 13 | 0 | 12.9 | 22.5 | 0.00 | 0.00 | 0.00 | 60 | 1010.4 |
| 20260506142504 | 13 | 6 | 11.3 | 22.5 | 0.00 | 0.00 | 0.00 | 60 | 1010.3 |
| 20260506142003 | 13 | 45 | 9.7 | 20.9 | 0.00 | 0.00 | 0.00 | 60 | 1010.2 |
| 20260506141507 | 13 | 18 | 8.0 | 14.5 | 0.00 | 0.00 | 0.00 | 61 | 1010.2 |
| 20260506140504 | 13 | 51 | 9.7 | 27.4 | 0.00 | 0.00 | 0.00 | 61 | 1010.3 |
| 20260506140003 | 13 | 21 | 14.5 | 27.4 | 0.00 | 0.00 | 0.00 | 61 | 1010.2 |
| 20260506135001 | 12 | 125 | 4.8 | 16.1 | 0.00 | 0.00 | 0.00 | 62 | 1010.2 |
| 20260506134504 | 12 | 20 | 8.0 | 20.9 | 0.00 | 0.00 | 0.00 | 63 | 1010.2 |
| 20260506134003 | 12 | 147 | 8.0 | 20.9 | 0.00 | 0.00 | 0.00 | 62 | 1010.2 |
| 20260506133502 | 12 | 30 | 6.4 | 16.1 | 0.00 | 0.00 | 0.00 | 62 | 1010.2 |
| 20260506133004 | 12 | 17 | 8.0 | 20.9 | 0.00 | 0.00 | 0.00 | 64 | 1010.2 |
| 20260506132502 | 13 | 13 | 6.4 | 27.4 | 0.00 | 0.00 | 0.00 | 63 | 1010.2 |
| 20260506131501 | 13 | 100 | 6.4 | 16.1 | 0.00 | 0.00 | 0.00 | 63 | 1010.2 |
| 20260506131000 | 13 | 140 | 4.8 | 30.6 | 0.00 | 0.00 | 0.00 | 63 | 1010.1 |
| 20260506130001 | 13 | 0 | 9.7 | 22.5 | 0.00 | 0.00 | 0.00 | 62 | 1010.1 |
| 20260506125001 | 13 | 320 | 8.0 | 20.9 | 0.00 | 0.00 | 0.00 | 61 | 1010.0 |
| 20260506124001 | 12 | 17 | 6.4 | 19.3 | 0.00 | 0.00 | 0.00 | 61 | 1009.9 |
| 20260506123502 | 13 | 0 | 8.0 | 19.3 | 0.00 | 0.00 | 0.00 | 61 | 1009.9 |
| 20260506123000 | 12 | 75 | 6.4 | 16.1 | 0.00 | 0.00 | 0.00 | 61 | 1010.0 |
| 20260506122501 | 12 | 0 | 8.0 | 17.7 | 0.00 | 0.00 | 0.00 | 61 | 1009.9 |
| 20260506122001 | 12 | 1 | 8.0 | 17.7 | 0.00 | 0.00 | 0.00 | 60 | 1009.9 |
| 20260506121500 | 12 | 0 | 6.4 | 22.5 | 0.00 | 0.00 | 0.00 | 61 | 1009.8 |
| 20260506120959 | 12 | 10 | 8.0 | 22.5 | 0.00 | 0.00 | 0.00 | 61 | 1009.8 |
| 20260506120502 | 12 | 21 | 9.7 | 19.3 | 0.00 | 0.00 | 0.00 | 60 | 1009.8 |
| 20260506120000 | 12 | 24 | 6.4 | 22.5 | 0.00 | 0.00 | 0.00 | 59 | 1009.8 |
| 20260506115500 | 13 | 7 | 9.7 | 22.5 | 0.00 | 0.00 | 0.00 | 60 | 1009.8 |
| 20260506115001 | 13 | 16 | 6.4 | 17.7 | 0.00 | 0.00 | 0.00 | 60 | 1009.8 |
| 20260506114001 | 13 | 31 | 11.3 | 27.4 | 0.00 | 0.00 | 0.00 | 58 | 1009.8 |
| 20260506113459 | 13 | 38 | 6.4 | 19.3 | 0.00 | 0.00 | 0.00 | 60 | 1009.7 |
| 20260506112959 | 13 | 39 | 9.7 | 19.3 | 0.00 | 0.00 | 0.00 | 61 | 1009.7 |
| 20260506112459 | 13 | 6 | 6.4 | 17.7 | 0.00 | 0.00 | 0.00 | 60 | 1009.7 |
| 20260506111959 | 13 | 6 | 8.0 | 16.1 | 0.00 | 0.00 | 0.00 | 65 | 1009.7 |
| 20260506111458 | 13 | 49 | 4.8 | 16.1 | 0.00 | 0.00 | 0.00 | 67 | 1009.6 |
| 20260506110958 | 13 | 20 | 6.4 | 16.1 | 0.00 | 0.00 | 0.00 | 68 | 1009.6 |
| 20260506110459 | 13 | 37 | 6.4 | 19.3 | 0.00 | 0.00 | 0.00 | 67 | 1009.6 |
| 20260506105958 | 13 | 18 | 6.4 | 19.3 | 0.00 | 0.00 | 0.00 | 66 | 1009.6 |
| 20260506105458 | 13 | 18 | 9.7 | 19.3 | 0.00 | 0.00 | 0.00 | 65 | 1009.6 |
| 20260506104458 | 13 | 347 | 6.4 | 19.3 | 0.00 | 0.00 | 0.00 | 64 | 1009.6 |
| 20260506103958 | 13 | 31 | 8.0 | 20.9 | 0.00 | 0.00 | 0.00 | 63 | 1009.6 |
| 20260506103457 | 13 | 61 | 11.3 | 20.9 | 0.00 | 0.00 | 0.00 | 64 | 1009.6 |
| 20260506102958 | 13 | 52 | 6.4 | 14.5 | 0.00 | 0.00 | 0.00 | 64 | 1009.6 |
| 20260506101957 | 13 | 23 | 11.3 | 24.1 | 0.00 | 0.00 | 0.00 | 62 | 1009.6 |
| 20260506100958 | 14 | 17 | 9.7 | 20.9 | 0.00 | 0.00 | 0.00 | 61 | 1009.5 |
| 20260506100457 | 14 | 0 | 8.0 | 20.9 | 0.00 | 0.00 | 0.00 | 60 | 1009.4 |
| 20260506095457 | 14 | 54 | 9.7 | 17.7 | 0.00 | 0.00 | 0.00 | 59 | 1009.3 |
| 20260506094957 | 14 | 44 | 4.8 | 17.7 | 0.00 | 0.00 | 0.00 | 61 | 1009.3 |
| 20260506094456 | 13 | 151 | 8.0 | 20.9 | 0.00 | 0.00 | 0.00 | 60 | 1009.3 |
| 20260506093956 | 13 | 39 | 6.4 | 20.9 | 0.00 | 0.00 | 0.00 | 60 | 1009.2 |
| 20260506093456 | 13 | 99 | 8.0 | 19.3 | 0.00 | 0.00 | 0.00 | 59 | 1009.3 |
| 20260506092958 | 13 | 1 | 9.7 | 19.3 | 0.00 | 0.00 | 0.00 | 59 | 1009.3 |
| 20260506092457 | 13 | 37 | 9.7 | 19.3 | 0.00 | 0.00 | 0.00 | 61 | 1009.2 |
| 20260506091455 | 13 | 0 | 9.7 | 25.7 | 0.00 | 0.00 | 0.00 | 60 | 1009.3 |
| 20260506090955 | 13 | 333 | 8.0 | 22.5 | 0.00 | 0.00 | 0.00 | 64 | 1009.2 |
| 20260506090455 | 12 | 47 | 9.7 | 22.5 | 0.00 | 0.00 | 0.00 | 61 | 1009.1 |
| 20260506085955 | 12 | 3 | 11.3 | 20.9 | 0.00 | 0.00 | 0.00 | 63 | 1009.1 |
| 20260506085456 | 13 | 14 | 11.3 | 30.6 | 0.00 | 0.00 | 0.00 | 63 | 1009.1 |
| 20260506084955 | 13 | 353 | 11.3 | 30.6 | 0.00 | 0.00 | 0.00 | 66 | 1009.0 |
| 20260506084455 | 13 | 336 | 8.0 | 22.5 | 0.00 | 0.00 | 0.00 | 66 | 1009.0 |
| 20260506083455 | 12 | 4 | 6.4 | 17.7 | 0.00 | 0.00 | 0.00 | 70 | 1009.0 |
| 20260506082955 | 12 | 35 | 6.4 | 8.0 | 0.00 | 0.00 | 0.00 | 70 | 1009.0 |
| 20260506082455 | 12 | 0 | 8.0 | 14.5 | 0.00 | 0.00 | 0.00 | 70 | 1009.0 |
| 20260506081954 | 12 | 20 | 8.0 | 14.5 | 0.00 | 0.00 | 0.00 | 71 | 1008.9 |
| 20260506081454 | 12 | 20 | 6.4 | 8.0 | 0.00 | 0.00 | 0.00 | 72 | 1008.8 |
| 20260506080954 | 12 | 20 | 6.4 | 16.1 | 0.00 | 0.00 | 0.00 | 73 | 1008.9 |
| 20260506080454 | 12 | 4 | 16.1 | 17.7 | 0.00 | 0.00 | 0.00 | 75 | 1008.8 |